| time (UTC) | temp C | wind direction | speed KPH | gust KPH | rain 1hr cm | rain 24hr cm | rain mn cm | humidity % | barometer mb |
| 20260904003027 | 16 | 12 | 1.6 | 9.7 | 0.00 | 1.07 | 0.28 | 54 | 1007.7 |
| 20260904001525 | 16 | 63 | 4.8 | 9.7 | 0.00 | 1.07 | 0.28 | 54 | 1007.6 |
| 20260904000030 | 17 | 34 | 3.2 | 6.4 | 0.00 | 1.07 | 0.28 | 52 | 1007.8 |
| 20260903234522 | 17 | 30 | 1.6 | 6.4 | 0.00 | 1.07 | 0.28 | 51 | 1008.0 |
| 20260903233022 | 17 | 1 | 1.6 | 6.4 | 0.00 | 1.07 | 0.28 | 51 | 1008.0 |
| 20260903231521 | 17 | 360 | 4.8 | 9.7 | 0.00 | 1.07 | 0.28 | 47 | 1008.1 |
| 20260903230023 | 17 | 17 | 6.4 | 9.7 | 0.00 | 1.07 | 0.28 | 49 | 1008.1 |
| 20260903224520 | 17 | 337 | 4.8 | 9.7 | 0.00 | 1.07 | 0.28 | 48 | 1008.3 |
| 20260903223030 | 17 | 360 | 4.8 | 8.0 | 0.00 | 1.07 | 0.28 | 49 | 1008.5 |
| 20260903221520 | 17 | 316 | 4.8 | 11.3 | 0.00 | 1.07 | 0.28 | 49 | 1008.5 |
| 20260903220019 | 17 | 9 | 6.4 | 12.9 | 0.00 | 1.07 | 0.28 | 49 | 1008.3 |
| 20260903214520 | 17 | 15 | 3.2 | 11.3 | 0.00 | 1.07 | 0.28 | 48 | 1008.5 |
| 20260903213019 | 17 | 342 | 3.2 | 9.7 | 0.00 | 1.07 | 0.28 | 47 | 1009.0 |
| 20260903211517 | 17 | 310 | 1.6 | 8.0 | 0.00 | 1.07 | 0.28 | 47 | 1009.2 |
| 20260903210017 | 17 | 34 | 1.6 | 9.7 | 0.00 | 1.07 | 0.28 | 48 | 1008.9 |
| 20260903204516 | 17 | 95 | 0.0 | 9.7 | 0.00 | 1.07 | 0.28 | 47 | 1009.1 |
| 20260903203019 | 17 | 34 | 0.0 | 9.7 | 0.00 | 1.07 | 0.28 | 48 | 1009.6 |
| 20260903201512 | 16 | 310 | 6.4 | 9.7 | 0.00 | 1.07 | 0.28 | 48 | 1009.6 |
| 20260903200012 | 16 | 10 | 4.8 | 9.7 | 0.00 | 1.07 | 0.28 | 49 | 1009.7 |
| 20260903194511 | 16 | 347 | 3.2 | 9.7 | 0.00 | 1.07 | 0.28 | 49 | 1009.9 |
| 20260903193010 | 16 | 321 | 8.0 | 9.7 | 0.00 | 1.07 | 0.28 | 49 | 1009.6 |
| 20260903191510 | 16 | 315 | 3.2 | 9.7 | 0.00 | 1.07 | 0.28 | 48 | 1009.9 |
| 20260903190007 | 16 | 307 | 3.2 | 8.0 | 0.00 | 1.07 | 0.28 | 50 | 1009.9 |
| 20260903184506 | 16 | 320 | 3.2 | 8.0 | 0.00 | 1.07 | 0.28 | 52 | 1010.2 |
| 20260903183005 | 15 | 321 | 4.8 | 9.7 | 0.00 | 1.07 | 0.28 | 52 | 1010.1 |
| 20260903181504 | 15 | 301 | 6.4 | 9.7 | 0.00 | 1.07 | 0.28 | 51 | 1010.1 |
| 20260903180004 | 15 | 342 | 4.8 | 11.3 | 0.00 | 1.07 | 0.28 | 53 | 1010.2 |
| 20260903174507 | 15 | 320 | 6.4 | 12.9 | 0.00 | 1.07 | 0.28 | 51 | 1010.2 |
| 20260903173002 | 15 | 305 | 4.8 | 12.9 | 0.00 | 1.07 | 0.28 | 56 | 1010.3 |
| 20260903171500 | 15 | 276 | 4.8 | 11.3 | 0.00 | 1.07 | 0.28 | 57 | 1010.4 |
| 20260903170100 | 15 | 252 | 8.0 | 16.1 | 0.00 | 1.07 | 0.28 | 55 | 1010.3 |
| 20260903164558 | 15 | 281 | 8.0 | 14.5 | 0.00 | 1.07 | 0.28 | 54 | 1010.2 |
| 20260903163155 | 15 | 222 | 4.8 | 12.9 | 0.00 | 1.07 | 0.28 | 59 | 1010.3 |
| 20260903161554 | 15 | 214 | 8.0 | 12.9 | 0.00 | 1.07 | 0.28 | 61 | 1010.3 |
| 20260903160105 | 15 | 185 | 6.4 | 11.3 | 0.00 | 1.07 | 0.28 | 64 | 1010.4 |
| 20260903154551 | 15 | 172 | 8.0 | 16.1 | 0.00 | 1.07 | 0.28 | 68 | 1010.4 |
| 20260903153048 | 14 | 174 | 3.2 | 9.7 | 0.00 | 1.07 | 0.28 | 70 | 1010.4 |
| 20260903151543 | 13 | 243 | 0.0 | 6.4 | 0.00 | 1.07 | 0.28 | 79 | 1010.5 |
| 20260903150040 | 13 | 108 | 0.0 | 3.2 | 0.03 | 1.07 | 0.28 | 80 | 1010.5 |
| 20260903144542 | 12 | 108 | 0.0 | 3.2 | 0.03 | 1.07 | 0.28 | 83 | 1010.7 |
| 20260903143039 | 12 | 109 | 0.0 | 6.4 | 0.03 | 1.07 | 0.28 | 84 | 1010.6 |
| 20260903141537 | 12 | 101 | 6.4 | 8.0 | 0.03 | 1.07 | 0.28 | 84 | 1010.4 |
| 20260903140036 | 12 | 119 | 0.0 | 6.4 | 0.00 | 1.04 | 0.25 | 86 | 1010.5 |
| 20260903134537 | 12 | 141 | 0.0 | 0.0 | 0.00 | 1.04 | 0.25 | 85 | 1010.4 |
| 20260903133034 | 12 | 141 | 0.0 | 3.2 | 0.00 | 1.04 | 0.25 | 83 | 1010.2 |
| 20260903131533 | 12 | 141 | 3.2 | 6.4 | 0.00 | 1.04 | 0.25 | 83 | 1010.4 |
| 20260903130031 | 12 | 149 | 0.0 | 4.8 | 0.00 | 1.04 | 0.25 | 84 | 1010.1 |
| 20260903124529 | 12 | 143 | 4.8 | 8.0 | 0.00 | 1.04 | 0.25 | 84 | 1009.9 |
| 20260903123029 | 12 | 131 | 3.2 | 8.0 | 0.00 | 1.04 | 0.25 | 86 | 1009.9 |
| 20260903121525 | 12 | 145 | 0.0 | 4.8 | 0.00 | 1.04 | 0.25 | 89 | 1009.7 |
| 20260903120025 | 11 | 168 | 0.0 | 1.6 | 0.00 | 1.04 | 0.25 | 91 | 1009.6 |
| 20260903114524 | 11 | 114 | 0.0 | 1.6 | 0.00 | 1.04 | 0.25 | 91 | 1009.3 |
| 20260903113033 | 11 | 317 | 0.0 | 3.2 | 0.00 | 1.04 | 0.25 | 89 | 1009.4 |
| 20260903111522 | 12 | 293 | 1.6 | 11.3 | 0.03 | 1.04 | 0.25 | 88 | 1009.6 |
| 20260903110020 | 12 | 304 | 4.8 | 8.0 | 0.03 | 1.04 | 0.25 | 87 | 1009.3 |
| 20260903104520 | 12 | 345 | 3.2 | 4.8 | 0.10 | 1.04 | 0.25 | 87 | 1009.2 |
| 20260903103019 | 11 | 131 | 0.0 | 3.2 | 0.15 | 1.04 | 0.25 | 90 | 1009.3 |
| 20260903101517 | 11 | 137 | 0.0 | 6.4 | 0.15 | 1.02 | 0.23 | 89 | 1009.2 |
| 20260903100016 | 12 | 103 | 6.4 | 9.7 | 0.20 | 1.02 | 0.23 | 88 | 1009.1 |
| 20260903094514 | 12 | 146 | 0.0 | 1.6 | 0.13 | 0.94 | 0.15 | 87 | 1009.2 |
| 20260903093015 | 12 | 146 | 0.0 | 1.6 | 0.08 | 0.89 | 0.10 | 87 | 1009.3 |
| 20260903091510 | 12 | 108 | 0.0 | 0.0 | 0.08 | 0.86 | 0.08 | 88 | 1009.0 |
| 20260903090024 | 12 | 108 | 0.0 | 0.0 | 0.03 | 0.81 | 0.03 | 88 | 1008.9 |
| 20260903084505 | 12 | 108 | 0.0 | 0.0 | 0.03 | 0.81 | 0.03 | 87 | 1008.6 |
| 20260903083005 | 12 | 108 | 0.0 | 0.0 | 0.03 | 0.81 | 0.03 | 86 | 1008.5 |
| 20260903081503 | 12 | 108 | 0.0 | 4.8 | 0.00 | 0.79 | 0.00 | 84 | 1008.3 |
| 20260903080112 | 12 | 121 | 3.2 | 4.8 | 0.00 | 0.79 | 0.00 | 86 | 1008.1 |
| 20260903074620 | 12 | 103 | 0.0 | 6.4 | 0.00 | 0.79 | 0.00 | 84 | 1008.0 |
| 20260903073108 | 12 | 309 | 6.4 | 9.7 | 0.03 | 0.79 | 0.00 | 84 | 1007.9 |
| 20260903071607 | 13 | 146 | 0.0 | 6.4 | 0.03 | 0.79 | 0.00 | 80 | 1007.7 |
| 20260903070051 | 12 | 133 | 3.2 | 14.5 | 0.20 | 0.79 | 0.00 | 81 | 1007.9 |
| 20260903064550 | 12 | 131 | 8.0 | 32.2 | 0.33 | 0.79 | 0.79 | 82 | 1007.8 |
| 20260903063049 | 12 | 131 | 4.8 | 14.5 | 0.38 | 0.76 | 0.76 | 85 | 1007.8 |
| 20260903061554 | 12 | 131 | 3.2 | 9.7 | 0.41 | 0.71 | 0.71 | 85 | 1008.2 |
| 20260903060047 | 12 | 197 | 3.2 | 9.7 | 0.28 | 0.56 | 0.56 | 82 | 1008.5 |
| 20260903054550 | 13 | 194 | 8.0 | 22.5 | 0.18 | 0.43 | 0.43 | 83 | 1008.4 |
| 20260903053049 | 13 | 243 | 22.5 | 32.2 | 0.18 | 0.38 | 0.38 | 84 | 1008.4 |
| 20260903051544 | 13 | 144 | 6.4 | 14.5 | 0.18 | 0.33 | 0.33 | 82 | 1007.6 |
| 20260903050043 | 13 | 139 | 4.8 | 12.9 | 0.18 | 0.28 | 0.28 | 82 | 1007.6 |
| 20260903044542 | 13 | 131 | 3.2 | 9.7 | 0.18 | 0.25 | 0.25 | 82 | 1007.8 |
| 20260903043041 | 13 | 113 | 1.6 | 8.0 | 0.15 | 0.20 | 0.20 | 84 | 1007.9 |
| 20260903041641 | 13 | 127 | 0.0 | 4.8 | 0.15 | 0.15 | 0.15 | 84 | 1007.9 |
| 20260903040039 | 13 | 140 | 1.6 | 9.7 | 0.10 | 0.10 | 0.10 | 81 | 1007.9 |
| 20260903034546 | 14 | 141 | 4.8 | 8.0 | 0.08 | 0.08 | 0.08 | 80 | 1007.9 |
| 20260903033041 | 15 | 170 | 6.4 | 11.3 | 0.03 | 0.03 | 0.03 | 76 | 1007.9 |
| 20260903031539 | 15 | 158 | 4.8 | 8.0 | 0.00 | 0.00 | 0.00 | 74 | 1007.7 |
| 20260903030034 | 15 | 208 | 4.8 | 11.3 | 0.00 | 0.00 | 0.00 | 72 | 1007.6 |
| 20260903024533 | 16 | 210 | 6.4 | 14.5 | 0.00 | 0.00 | 0.00 | 66 | 1007.3 |
| 20260903023036 | 16 | 188 | 11.3 | 20.9 | 0.00 | 0.00 | 0.00 | 61 | 1007.2 |
| 20260903021531 | 17 | 196 | 11.3 | 22.5 | 0.00 | 0.00 | 0.00 | 58 | 1007.2 |
| 20260903020031 | 17 | 202 | 14.5 | 25.7 | 0.00 | 0.00 | 0.00 | 56 | 1007.2 |
| 20260903014544 | 18 | 193 | 20.9 | 29.0 | 0.00 | 0.00 | 0.00 | 52 | 1007.1 |
| 20260903013034 | 17 | 198 | 19.3 | 29.0 | 0.00 | 0.00 | 0.00 | 55 | 1007.1 |
| 20260903011528 | 17 | 195 | 24.1 | 35.4 | 0.00 | 0.00 | 0.00 | 55 | 1007.1 |
| 20260903010028 | 18 | 202 | 22.5 | 33.8 | 0.00 | 0.00 | 0.00 | 52 | 1006.9 |
| 20260903004540 | 18 | 194 | 20.9 | 32.2 | 0.00 | 0.00 | 0.00 | 52 | 1006.9 |